Content
SEND FEEDBACK

Daily
Averages
Monthly
Summary
United States of America

WILMINGTON, NORTH CAROLINA


Home > North America > United States > North Carolina
Elevation: 72 feet     Latitude: 34 16N     Longitude: 077 54W

WEATHER
 
SELECT A DAY
Number of Records: 208,628;   Date Range: 1/1/95 - 7/20/14
 
SHARE

PRINT THIS DATA

[ ← Previous Day ]
WEATHER ALMANAC - MAY 7, 2013
[ Next Day → ]
[ °C ]   °F
Weather ElementAverageHighLow
Temperature62.9 °F71.1 °F (12:53 pm)55 °F (1:53 am)
Dewpoint50.7 °F55 °F (10:53 pm)46 °F (2:53 pm)
Humidity67.3 %93 % (1:53 am)41 % (2:53 pm)
Barometer29.93 in29.98 in (10:53 pm)29.88 in (2:53 am)
Wind Speed6.4 mph18.4 mph (3:53 pm)
Wind Gust23 mph (3:53 pm)
Weather ElementAverage
Visibility9.9 mi
Wind DirectionSSE (150.9 °)

Weather ElementTotal
Precipitation---
Heating Degree Days2 (Base 65)
Growing Degree Days13.1 (Base 50)
Averaged from 23 records on May 7, 2013
WEATHER CONDITIONS BREAKOUT
WIND DIRECTION BREAKOUT
WEATHER BY HOUR - MAY 7, 2013
[ °C ]   °F
Local TimeTemperatureDewpointHumidityBarometerVisibilityWind DirectionWind SpeedGust SpeedPrecipitationEventsConditions
1:53 AM55.0 °F53.1 °F93 %29.89 in8.0 miCalmClear
2:53 AM55.0 °F53.1 °F93 %29.88 in10.0 miCalmClear
3:53 AM57.2 °F53.6 °F88 %29.88 in10.0 miSW (220°)5.8 mphClear
4:53 AM55.9 °F52.0 °F87 %29.88 in10.0 miWSW (250°)6.9 mphClear
5:53 AM55.0 °F51.1 °F86 %29.89 in10.0 miWest (260°)4.6 mphScattered Clouds
6:53 AM55.0 °F51.1 °F86 %29.91 in10.0 miCalmClear
7:53 AM60.1 °F52.0 °F75 %29.92 in10.0 miCalmClear
8:53 AM61.0 °F51.1 °F70 %29.94 in10.0 miCalmScattered Clouds
9:53 AM64.9 °F51.1 °F61 %29.95 in10.0 miCalmScattered Clouds
10:53 AM68.0 °F48.9 °F50 %29.96 in10.0 miWSW (240°)5.8 mphOvercast
11:53 AM69.1 °F46.9 °F45 %29.96 in10.0 miSouth (180°)9.2 mphClear
12:53 PM71.1 °F46.9 °F42 %29.94 in10.0 miSW (220°)11.5 mph19.6 mphScattered Clouds
1:53 PM69.1 °F48.9 °F49 %29.94 in10.0 miSSW (200°)15.0 mph18.4 mphOvercast
2:53 PM71.1 °F46.0 °F41 %29.92 in10.0 miSSW (200°)11.5 mph17.3 mph0.00 inClear
3:53 PM71.1 °F46.0 °F41 %29.91 in10.0 miSW (230°)18.4 mph23.0 mphScattered Clouds
4:53 PM71.1 °F48.0 °F44 %29.91 in10.0 miSW (230°)9.2 mph18.4 mphPartly Cloudy
5:53 PM69.1 °F48.0 °F47 %29.91 in10.0 miSW (230°)12.7 mphClear
6:53 PM66.9 °F50.0 °F54 %29.92 in10.0 miSW (220°)11.5 mph19.6 mphClear
7:53 PM63.0 °F52.0 °F67 %29.94 in10.0 miSouth (190°)11.5 mphClear
8:53 PM61.0 °F53.1 °F75 %29.96 in10.0 miSouth (180°)3.5 mphPartly Cloudy
9:53 PM60.1 °F54.0 °F80 %29.97 in10.0 miSSW (200°)4.6 mphClear
10:53 PM60.1 °F55.0 °F83 %29.98 in10.0 miSW (220°)4.6 mphClear
11:53 PM57.9 °F55.0 °F90 %29.98 in10.0 miCalmClear
Hourly data recorded from KILM, located miles away from Wilmington, North Carolina







STORIES FROM OUR PARTNERS